Location: Unspecified
(0.0000°N, 0.0000°E)
Time: 23:06:50
(UTC+00:00)

Tiros 1 - Pass Details

Date: 10 October 2020
Orbit: 630 x 663 km, 48.4° (Epoch: 30 October)

Event Time Altitude Azimuth Distance (km) Brightness Sun altitude
Rises 18:33:38 0° 328° (NNW) 2,971 10.9 -11.6°
Reaches altitude 10° 18:36:00 10° 332° (NNW) 2,064 10.0 -12.2°
Maximum altitude 18:40:42 58° 51° (NE) 767 7.2 -13.4°
Enters shadow 18:45:14 11° 130° (SE) 2,008 9.3 -14.5°
